When you browse on this site, cookies collect data to enhance your experience and personalize the content and advertising you see.
Visit our Privacy Policy to learn more. By continuing to use the site, you agree to this use of cookies and data.
  • In Deutschland
  • Länderverzeichnis
  • Für 7 Tage
  • Wassertemperatur
  • Satellitenkarten
  • Wetterkarte
  • Widgets
  • user-avatar
    Anmelden

    Stündliche Wetter Mykhailopil'

    Heute, 18 November, Sonntag

    Zeit Temperatur Niederschläge Wind Luftdruck Luftfeuchtigkeit
    00:00 -1°C° 0 mm 2 m/S 769 mmHg 64%
    01:00 -1°C° 0 mm 2 m/S 769 mmHg 63%
    02:00 -1°C° 0 mm 3 m/S 769 mmHg 63%
    03:00 -1°C° 0 mm 3 m/S 768 mmHg 63%
    04:00 -1°C° 0 mm 2 m/S 768 mmHg 63%
    05:00 -2°C° 0 mm 2 m/S 768 mmHg 63%
    06:00 -2°C° 0 mm 2 m/S 767 mmHg 62%
    07:00 -2°C° 0 mm 2 m/S 767 mmHg 62%
    08:00 -2°C° 0 mm 2 m/S 766 mmHg 61%
    09:00 -1°C° 0 mm 2 m/S 766 mmHg 57%
    10:00 +1°C° 0 mm 2 m/S 766 mmHg 52%
    11:00 +2°C° 0 mm 2 m/S 766 mmHg 47%
    12:00 +3°C° 0 mm 2 m/S 765 mmHg 46%
    13:00 +4°C° 0 mm 2 m/S 765 mmHg 46%
    14:00 +4°C° 0 mm 2 m/S 764 mmHg 42%
    15:00 +3°C° 0 mm 2 m/S 764 mmHg 45%
    16:00 +3°C° 0 mm 1 m/S 764 mmHg 48%
    17:00 +2°C° 0 mm 1 m/S 763 mmHg 52%
    18:00 +2°C° 0 mm 1 m/S 763 mmHg 53%
    19:00 +2°C° 0 mm 1 m/S 763 mmHg 53%
    20:00 +1°C° 0 mm 1 m/S 763 mmHg 54%
    21:00 +1°C° 0 mm 1 m/S 763 mmHg 55%
    22:00 -1°C° 0 mm 2 m/S 762 mmHg 56%
    23:00 -1°C° 0 mm 2 m/S 762 mmHg 57%

    Morgen, 19 November, Montag

    Zeit Temperatur Niederschläge Wind Luftdruck Luftfeuchtigkeit
    00:00 -1°C° 0 mm 2 m/S 762 mmHg 59%
    01:00 -1°C° 0 mm 2 m/S 762 mmHg 61%
    02:00 -1°C° 0 mm 2 m/S 762 mmHg 63%
    03:00 -1°C° 0 mm 3 m/S 761 mmHg 67%
    04:00 -2°C° 0 mm 4 m/S 761 mmHg 71%
    05:00 -2°C° 0 mm 4 m/S 761 mmHg 74%
    06:00 -1°C° 0.1 mm 5 m/S 761 mmHg 78%
    07:00 -1°C° 0.1 mm 5 m/S 760 mmHg 83%
    08:00 -2°C° 0.1 mm 6 m/S 760 mmHg 87%
    09:00 -1°C° 0.3 mm 6 m/S 760 mmHg 84%
    10:00 0°C° 0.3 mm 7 m/S 760 mmHg 80%
    11:00 0°C° 0.3 mm 7 m/S 759 mmHg 77%
    12:00 0°C° 0.6 mm 8 m/S 759 mmHg 76%
    13:00 +1°C° 0.6 mm 8 m/S 758 mmHg 75%
    14:00 +1°C° 0.6 mm 8 m/S 757 mmHg 74%
    15:00 0°C° 1.4 mm 8 m/S 757 mmHg 78%
    16:00 0°C° 1.4 mm 8 m/S 757 mmHg 82%
    17:00 0°C° 1.4 mm 8 m/S 756 mmHg 86%
    18:00 -1°C° 1.9 mm 8 m/S 756 mmHg 88%
    19:00 -1°C° 1.9 mm 8 m/S 756 mmHg 90%
    20:00 -1°C° 1.9 mm 8 m/S 756 mmHg 92%
    21:00 -2°C° 0.9 mm 8 m/S 756 mmHg 92%
    22:00 -2°C° 0.9 mm 8 m/S 756 mmHg 92%
    23:00 -2°C° 0.9 mm 8 m/S 756 mmHg 92%

    übermorgen, 20 November, Dienstag

    Zeit Temperatur Niederschläge Wind Luftdruck Luftfeuchtigkeit
    00:00 -2°C° 0.7 mm 8 m/S 757 mmHg 91%
    01:00 -2°C° 0.7 mm 7 m/S 757 mmHg 91%
    02:00 -2°C° 0.7 mm 7 m/S 757 mmHg 91%
    03:00 -2°C° 0.1 mm 7 m/S 758 mmHg 91%
    04:00 -2°C° 0.1 mm 7 m/S 758 mmHg 91%
    05:00 -2°C° 0.1 mm 7 m/S 759 mmHg 91%
    06:00 -3°C° 0 mm 7 m/S 759 mmHg 90%
    07:00 -3°C° 0 mm 6 m/S 760 mmHg 90%
    08:00 -3°C° 0 mm 6 m/S 760 mmHg 90%
    09:00 -3°C° 0 mm 6 m/S 761 mmHg 90%
    10:00 -2°C° 0 mm 6 m/S 761 mmHg 90%
    11:00 -2°C° 0 mm 6 m/S 762 mmHg 91%
    12:00 -1°C° 0 mm 5 m/S 762 mmHg 91%
    13:00 -1°C° 0 mm 5 m/S 762 mmHg 91%
    14:00 -1°C° 0 mm 4 m/S 762 mmHg 92%
    15:00 -1°C° 0 mm 4 m/S 762 mmHg 91%
    16:00 -2°C° 0 mm 4 m/S 762 mmHg 91%
    17:00 -1°C° 0 mm 3 m/S 762 mmHg 91%
    18:00 -1°C° 0 mm 3 m/S 762 mmHg 91%
    19:00 -2°C° 0 mm 3 m/S 762 mmHg 91%
    20:00 -2°C° 0 mm 3 m/S 762 mmHg 92%
    21:00 -2°C° 0 mm 3 m/S 762 mmHg 91%
    22:00 -2°C° 0 mm 3 m/S 762 mmHg 90%
    23:00 -2°C° 0 mm 3 m/S 762 mmHg 89%

    21 November, Mittwoch

    Zeit Temperatur Niederschläge Wind Luftdruck Luftfeuchtigkeit
    00:00 -2°C° 0.1 mm 3 m/S 762 mmHg 89%
    01:00 -1°C° 0.1 mm 3 m/S 762 mmHg 89%
    02:00 -1°C° 0.1 mm 3 m/S 762 mmHg 89%
    03:00 -1°C° 0.1 mm 3 m/S 762 mmHg 89%
    04:00 -1°C° 0.1 mm 3 m/S 761 mmHg 90%
    05:00 -2°C° 0.1 mm 4 m/S 761 mmHg 90%
    06:00 -3°C° 0.1 mm 4 m/S 761 mmHg 90%
    07:00 -3°C° 0.1 mm 4 m/S 761 mmHg 90%
    08:00 -3°C° 0.1 mm 4 m/S 761 mmHg 90%
    09:00 -2°C° 0 mm 4 m/S 762 mmHg 90%
    10:00 -2°C° 0 mm 4 m/S 762 mmHg 89%
    11:00 -1°C° 0 mm 5 m/S 762 mmHg 88%
    12:00 -1°C° 0 mm 5 m/S 761 mmHg 88%
    13:00 -1°C° 0 mm 5 m/S 761 mmHg 87%
    14:00 -1°C° 0 mm 5 m/S 761 mmHg 87%
    15:00 -1°C° 0 mm 5 m/S 761 mmHg 88%
    16:00 -2°C° 0 mm 5 m/S 761 mmHg 89%
    17:00 -4°C° 0 mm 5 m/S 761 mmHg 90%
    18:00 -4°C° 0 mm 5 m/S 761 mmHg 90%
    19:00 -5°C° 0 mm 5 m/S 761 mmHg 90%
    20:00 -5°C° 0 mm 5 m/S 762 mmHg 90%
    21:00 -6°C° 0 mm 5 m/S 762 mmHg 89%
    22:00 -6°C° 0 mm 5 m/S 762 mmHg 89%
    23:00 -6°C° 0 mm 5 m/S 763 mmHg 88%

    22 November, Donnerstag

    Zeit Temperatur Niederschläge Wind Luftdruck Luftfeuchtigkeit
    00:00 -6°C° 0 mm 5 m/S 763 mmHg 88%
    01:00 -7°C° 0 mm 5 m/S 763 mmHg 88%
    02:00 -7°C° 0 mm 4 m/S 763 mmHg 88%
    03:00 -7°C° 0 mm 5 m/S 763 mmHg 88%
    04:00 -7°C° 0 mm 5 m/S 763 mmHg 88%
    05:00 -7°C° 0 mm 5 m/S 763 mmHg 88%
    06:00 -7°C° 0 mm 5 m/S 764 mmHg 87%
    07:00 -7°C° 0 mm 4 m/S 764 mmHg 87%
    08:00 -8°C° 0 mm 4 m/S 764 mmHg 86%
    09:00 -5°C° 0 mm 4 m/S 765 mmHg 84%
    10:00 -4°C° 0 mm 4 m/S 765 mmHg 83%
    11:00 -3°C° 0 mm 4 m/S 765 mmHg 81%
    12:00 -4°C° 0 mm 5 m/S 765 mmHg 81%
    13:00 -4°C° 0 mm 5 m/S 765 mmHg 82%
    14:00 -2°C° 0 mm 5 m/S 765 mmHg 82%
    15:00 -4°C° 0 mm 5 m/S 765 mmHg 85%
    16:00 -4°C° 0 mm 4 m/S 765 mmHg 88%
    17:00 -5°C° 0 mm 4 m/S 765 mmHg 90%
    18:00 -5°C° 0 mm 4 m/S 765 mmHg 91%
    19:00 -7°C° 0 mm 4 m/S 766 mmHg 91%
    20:00 -7°C° 0 mm 4 m/S 766 mmHg 91%
    21:00 -6°C° 0 mm 3 m/S 766 mmHg 91%
    22:00 -6°C° 0 mm 3 m/S 767 mmHg 91%
    23:00 -7°C° 0 mm 3 m/S 767 mmHg 91%

    23 November, Freitag

    Zeit Temperatur Niederschläge Wind Luftdruck Luftfeuchtigkeit
    00:00 -7°C° 0 mm 3 m/S 767 mmHg 90%
    01:00 -7°C° 0 mm 3 m/S 767 mmHg 90%
    02:00 -8°C° 0 mm 3 m/S 767 mmHg 90%
    03:00 -8°C° 0 mm 3 m/S 768 mmHg 89%
    04:00 -8°C° 0 mm 3 m/S 768 mmHg 89%
    05:00 -8°C° 0 mm 3 m/S 768 mmHg 88%
    06:00 -8°C° 0 mm 3 m/S 768 mmHg 88%
    07:00 -8°C° 0 mm 3 m/S 768 mmHg 87%
    08:00 -7°C° 0 mm 3 m/S 769 mmHg 87%
    09:00 -6°C° 0 mm 3 m/S 769 mmHg 85%
    10:00 -5°C° 0 mm 3 m/S 769 mmHg 83%
    11:00 -4°C° 0 mm 3 m/S 769 mmHg 81%
    12:00 -2°C° 0 mm 3 m/S 769 mmHg 81%
    13:00 -2°C° 0 mm 3 m/S 769 mmHg 82%
    14:00 -2°C° 0 mm 3 m/S 769 mmHg 83%
    15:00 -4°C° 0 mm 3 m/S 769 mmHg 86%
    16:00 -5°C° 0 mm 3 m/S 769 mmHg 90%
    17:00 -6°C° 0 mm 3 m/S 769 mmHg 93%
    18:00 -5°C° 0 mm 2 m/S 769 mmHg 94%
    19:00 -6°C° 0 mm 2 m/S 769 mmHg 94%
    20:00 -6°C° 0 mm 2 m/S 769 mmHg 95%
    21:00 -6°C° 0 mm 2 m/S 769 mmHg 94%
    22:00 -4°C° 0 mm 1 m/S 769 mmHg 94%
    23:00 -4°C° 0 mm 1 m/S 769 mmHg 94%
    Mehr zeigen